User: anonymous   Login
Location: Akho
(42.3047°N, 44.1844°E)
Time: 13:18:30
(UTC+00:00)
Language:

SL-16 R/B - Orbit

View from above orbital plane
View from above orbital plane
View from above satellite
View from above satellite

Ground track
Ground track

The orbit data is extracted from the following two-line orbital elements,

1 31793U 07029B   20218.23184656  .00000107  00000-0  80856-4 0  9998
2 31793  70.9756 143.8968 0002306 257.8548 254.1617 14.14429029676627
Epoch (UTC): 05 August 2020 05:33:51
Eccentricity: 0.0002306
inclination: 70.9756°
perigee height: 842 km
apogee height: 846 km
right ascension of ascending node: 143.8968°
argument of perigee: 257.8548°
revolutions per day: 14.14429029
mean anomaly at epoch: 254.1617°
orbit number at epoch: 67662

The dashed part of the orbit path shows where the satellite is in the earth's shadow,  

DLR